Location: Góry Miechowskie
(50.3599°N, 20.1803°E)
Time: 15:05:51
(UTC+00:00)

S-56A Canister/Altair - Pass Details

Date: 15 September 2024
Orbit: 636 x 2487 km, 38.9° (Epoch: 09 October)

Event Time Altitude Azimuth Distance (km) Brightness Sun altitude
Rises 21:33:40 0° 266° (W) 4,052 11.4 -35.5°
Reaches altitude 10° 21:36:29 10° 255° (WSW) 3,329 10.8 -35.6°
Enters shadow 21:37:57 16° 248° (WSW) 3,027 10.5 -35.7°
